When you browse on this site, cookies collect data to enhance your experience and personalize the content and advertising you see.
Visit our Privacy Policy to learn more. By continuing to use the site, you agree to this use of cookies and data.

Meteo orario Girdovka

Oggi, 6 Luglio, Lunedi

Tempo Temperatura Precipitazioni Vento Pressione Umidità
00:00 +19°C° 0 mm 3 m/s 739 mm Hg 94%
01:00 +19°C° 0 mm 3 m/s 738 mm Hg 94%
02:00 +19°C° 0 mm 3 m/s 738 mm Hg 95%
03:00 +19°C° 0.1 mm 3 m/s 738 mm Hg 95%
04:00 +19°C° 0.1 mm 3 m/s 737 mm Hg 96%
05:00 +19°C° 0.1 mm 3 m/s 737 mm Hg 96%
06:00 +20°C° 0 mm 4 m/s 737 mm Hg 94%
07:00 +20°C° 0 mm 4 m/s 737 mm Hg 92%
08:00 +21°C° 0 mm 4 m/s 737 mm Hg 92%
09:00 +22°C° 0.6 mm 4 m/s 737 mm Hg 88%
10:00 +25°C° 0.6 mm 4 m/s 737 mm Hg 84%
11:00 +26°C° 0.6 mm 5 m/s 737 mm Hg 80%
12:00 +26°C° 0.9 mm 5 m/s 736 mm Hg 79%
13:00 +26°C° 0.9 mm 5 m/s 736 mm Hg 78%
14:00 +26°C° 0.9 mm 5 m/s 736 mm Hg 77%
15:00 +26°C° 1.1 mm 4 m/s 736 mm Hg 79%
16:00 +26°C° 1.1 mm 3 m/s 735 mm Hg 82%
17:00 +25°C° 1.1 mm 3 m/s 735 mm Hg 84%
18:00 +24°C° 0.3 mm 3 m/s 735 mm Hg 85%
19:00 +23°C° 0.3 mm 2 m/s 735 mm Hg 87%
20:00 +21°C° 0.3 mm 2 m/s 735 mm Hg 89%
21:00 +20°C° 0 mm 3 m/s 736 mm Hg 89%
22:00 +19°C° 0 mm 3 m/s 736 mm Hg 90%
23:00 +18°C° 0 mm 4 m/s 736 mm Hg 91%

Domani, 7 Luglio, Martedi

Tempo Temperatura Precipitazioni Vento Pressione Umidità
00:00 +17°C° 0.2 mm 3 m/s 736 mm Hg 93%
01:00 +16°C° 0.2 mm 3 m/s 737 mm Hg 94%
02:00 +14°C° 0.2 mm 3 m/s 737 mm Hg 96%
03:00 +15°C° 0 mm 2 m/s 737 mm Hg 95%
04:00 +14°C° 0 mm 2 m/s 737 mm Hg 93%
05:00 +14°C° 0 mm 2 m/s 738 mm Hg 92%
06:00 +14°C° 0.1 mm 2 m/s 738 mm Hg 90%
07:00 +13°C° 0.1 mm 3 m/s 738 mm Hg 89%
08:00 +14°C° 0.1 mm 3 m/s 739 mm Hg 87%
09:00 +16°C° 0.1 mm 3 m/s 739 mm Hg 83%
10:00 +17°C° 0.1 mm 3 m/s 739 mm Hg 78%
11:00 +18°C° 0.1 mm 3 m/s 739 mm Hg 73%
12:00 +18°C° 0.3 mm 3 m/s 739 mm Hg 73%
13:00 +18°C° 0.3 mm 3 m/s 739 mm Hg 74%
14:00 +18°C° 0.3 mm 3 m/s 739 mm Hg 74%
15:00 +17°C° 0.3 mm 4 m/s 739 mm Hg 75%
16:00 +17°C° 0.3 mm 4 m/s 740 mm Hg 75%
17:00 +17°C° 0.3 mm 4 m/s 740 mm Hg 76%
18:00 +15°C° 0 mm 4 m/s 740 mm Hg 78%
19:00 +14°C° 0 mm 4 m/s 740 mm Hg 80%
20:00 +13°C° 0 mm 3 m/s 740 mm Hg 82%
21:00 +12°C° 0 mm 3 m/s 740 mm Hg 84%
22:00 +11°C° 0 mm 3 m/s 740 mm Hg 87%
23:00 +10°C° 0 mm 2 m/s 741 mm Hg 89%

Dopodomani, 8 Luglio, Mercoledi

Tempo Temperatura Precipitazioni Vento Pressione Umidità
00:00 +9°C° 0 mm 2 m/s 741 mm Hg 91%
01:00 +9°C° 0 mm 3 m/s 740 mm Hg 93%
02:00 +8°C° 0 mm 3 m/s 740 mm Hg 95%
03:00 +8°C° 0 mm 3 m/s 741 mm Hg 95%
04:00 +8°C° 0 mm 3 m/s 741 mm Hg 95%
05:00 +8°C° 0 mm 3 m/s 741 mm Hg 95%
06:00 +10°C° 0 mm 3 m/s 741 mm Hg 89%
07:00 +12°C° 0 mm 3 m/s 741 mm Hg 83%
08:00 +14°C° 0 mm 3 m/s 741 mm Hg 76%
09:00 +15°C° 0 mm 4 m/s 741 mm Hg 72%
10:00 +17°C° 0 mm 4 m/s 741 mm Hg 68%
11:00 +17°C° 0 mm 5 m/s 741 mm Hg 64%
12:00 +17°C° 0.1 mm 5 m/s 741 mm Hg 63%
13:00 +19°C° 0.1 mm 5 m/s 741 mm Hg 63%
14:00 +19°C° 0.1 mm 5 m/s 741 mm Hg 62%
15:00 +17°C° 0.2 mm 5 m/s 741 mm Hg 67%
16:00 +17°C° 0.2 mm 4 m/s 741 mm Hg 73%
17:00 +15°C° 0.2 mm 4 m/s 741 mm Hg 78%
18:00 +14°C° 0.6 mm 4 m/s 741 mm Hg 84%
19:00 +13°C° 0.6 mm 3 m/s 741 mm Hg 90%
20:00 +11°C° 0.6 mm 3 m/s 741 mm Hg 96%
21:00 +11°C° 0.1 mm 3 m/s 741 mm Hg 96%
22:00 +11°C° 0.1 mm 3 m/s 741 mm Hg 97%
23:00 +11°C° 0.1 mm 3 m/s 741 mm Hg 97%

9 Luglio, Giovedi

Tempo Temperatura Precipitazioni Vento Pressione Umidità
00:00 +11°C° 0.1 mm 3 m/s 742 mm Hg 97%
01:00 +11°C° 0.1 mm 3 m/s 742 mm Hg 97%
02:00 +10°C° 0.1 mm 3 m/s 742 mm Hg 97%
03:00 +10°C° 0 mm 3 m/s 742 mm Hg 97%
04:00 +10°C° 0 mm 3 m/s 742 mm Hg 97%
05:00 +10°C° 0 mm 3 m/s 743 mm Hg 97%
06:00 +12°C° 0 mm 2 m/s 743 mm Hg 93%
07:00 +13°C° 0 mm 2 m/s 743 mm Hg 89%
08:00 +14°C° 0 mm 2 m/s 744 mm Hg 85%
09:00 +14°C° 0.1 mm 3 m/s 744 mm Hg 80%
10:00 +16°C° 0.1 mm 3 m/s 744 mm Hg 75%
11:00 +17°C° 0.1 mm 3 m/s 744 mm Hg 70%
12:00 +18°C° 0.2 mm 4 m/s 744 mm Hg 67%
13:00 +18°C° 0.2 mm 4 m/s 744 mm Hg 63%
14:00 +19°C° 0.2 mm 4 m/s 744 mm Hg 60%
15:00 +19°C° 0 mm 4 m/s 744 mm Hg 61%
16:00 +19°C° 0 mm 4 m/s 744 mm Hg 61%
17:00 +19°C° 0 mm 3 m/s 744 mm Hg 62%
18:00 +18°C° 0 mm 3 m/s 744 mm Hg 69%
19:00 +16°C° 0 mm 2 m/s 744 mm Hg 75%
20:00 +15°C° 0 mm 2 m/s 745 mm Hg 82%
21:00 +14°C° 0 mm 2 m/s 745 mm Hg 85%
22:00 +13°C° 0 mm 1 m/s 745 mm Hg 87%
23:00 +12°C° 0 mm 1 m/s 745 mm Hg 90%

10 Luglio, Venerdi

Tempo Temperatura Precipitazioni Vento Pressione Umidità
00:00 +11°C° 0 mm 1 m/s 745 mm Hg 90%
01:00 +11°C° 0 mm 1 m/s 745 mm Hg 90%
02:00 +10°C° 0 mm 0 m/s 745 mm Hg 90%
03:00 +11°C° 0 mm 1 m/s 745 mm Hg 90%
04:00 +11°C° 0 mm 1 m/s 745 mm Hg 90%
05:00 +11°C° 0 mm 1 m/s 745 mm Hg 90%
06:00 +13°C° 0 mm 1 m/s 745 mm Hg 85%
07:00 +15°C° 0 mm 2 m/s 745 mm Hg 80%
08:00 +17°C° 0 mm 2 m/s 745 mm Hg 76%
09:00 +18°C° 0 mm 3 m/s 745 mm Hg 71%
10:00 +19°C° 0 mm 3 m/s 745 mm Hg 67%
11:00 +20°C° 0 mm 4 m/s 744 mm Hg 62%
12:00 +21°C° 0 mm 4 m/s 744 mm Hg 61%
13:00 +21°C° 0 mm 4 m/s 743 mm Hg 61%
14:00 +22°C° 0 mm 5 m/s 743 mm Hg 60%
15:00 +22°C° 0 mm 5 m/s 742 mm Hg 63%
16:00 +22°C° 0 mm 5 m/s 742 mm Hg 67%
17:00 +22°C° 0 mm 4 m/s 741 mm Hg 70%
18:00 +21°C° 0.1 mm 5 m/s 741 mm Hg 74%
19:00 +20°C° 0.1 mm 5 m/s 740 mm Hg 78%
20:00 +19°C° 0.1 mm 5 m/s 739 mm Hg 83%
21:00 +19°C° 1.9 mm 5 m/s 739 mm Hg 87%
22:00 +19°C° 1.9 mm 5 m/s 739 mm Hg 91%
23:00 +17°C° 1.9 mm 5 m/s 739 mm Hg 96%

11 Luglio, Sabato

Tempo Temperatura Precipitazioni Vento Pressione Umidità
00:00 +17°C° 1.1 mm 5 m/s 739 mm Hg 95%
01:00 +16°C° 1.1 mm 5 m/s 739 mm Hg 95%
02:00 +17°C° 1.1 mm 4 m/s 739 mm Hg 95%
03:00 +14°C° 0 mm 4 m/s 740 mm Hg 94%
04:00 +13°C° 0 mm 4 m/s 740 mm Hg 93%
05:00 +11°C° 0 mm 3 m/s 741 mm Hg 93%
06:00 +12°C° 0 mm 4 m/s 741 mm Hg 87%
07:00 +13°C° 0 mm 5 m/s 741 mm Hg 80%
08:00 +14°C° 0 mm 6 m/s 742 mm Hg 74%
09:00 +15°C° 0 mm 7 m/s 742 mm Hg 70%
10:00 +15°C° 0 mm 7 m/s 742 mm Hg 66%
11:00 +16°C° 0 mm 7 m/s 742 mm Hg 62%
12:00 +16°C° 0 mm 7 m/s 742 mm Hg 63%
13:00 +16°C° 0 mm 7 m/s 742 mm Hg 64%
14:00 +17°C° 0 mm 7 m/s 742 mm Hg 65%
15:00 +17°C° 0 mm 7 m/s 742 mm Hg 66%
16:00 +16°C° 0 mm 7 m/s 742 mm Hg 66%
17:00 +16°C° 0 mm 7 m/s 742 mm Hg 67%
18:00 +15°C° 0 mm 6 m/s 742 mm Hg 70%
19:00 +14°C° 0 mm 6 m/s 742 mm Hg 72%
20:00 +13°C° 0 mm 5 m/s 742 mm Hg 75%
21:00 +12°C° 0 mm 5 m/s 742 mm Hg 74%
22:00 +10°C° 0 mm 5 m/s 743 mm Hg 73%
23:00 +10°C° 0 mm 5 m/s 743 mm Hg 72%
Mostrare altro